Home > Weather > Peterborough > Past weeks

Flag for Canada Past Weather in Peterborough, Ontario, Canada — Yesterday and Last 2 Weeks

Now
75 °F

Sunny.


Feels Like: 77 °F
Forecast: N/A
Wind: 8 mph from South

Location: Peterborough Airport

Current Time: Jun 30, 2016 at 7:07:00 PM

Latest Report: Jun 30, 2016 at 6:00 PM


Visibility: 9 mi

Pressure: 29.97 "Hg

Humidity: 34%

Dew Point: 45 °F

Location of PeterboroughLocation

Past Weather in Peterborough — Graph

°F

Peterborough Temperature Yesterday

Maximum temperature yesterday: 77 °F (at 3:00 PM)
Minimum temperature yesterday: 57 °F (at 11:00 PM)
Average temperature yesterday: 67 °F

High & Low Weather Summary for the Past Weeks

 TemperatureHumidityPressure
High88 °F (Jun 18, 4:00 PM)100% (Jun 16, 5:00 AM)30.27 "Hg (Jun 16, 5:00 AM)
Low43 °F (Jun 23, 5:00 AM)24% (Jun 18, 2:00 PM)29.70 "Hg (Jun 20, 6:01 PM)
Average68 °F64%29.97 "Hg
* Reported Jun 15 6:00 PM — Jun 30 6:00 PM, Peterborough, Weather by CustomWeather, © 2016

Note: Actual official high and low records may vary slightly from our data, if they occured in-between our weather recording intervals... More about our weather records

Advertising

Peterborough Weather History for the Previous 24 Hours

Scroll right to see more
 ConditionsComfort  
Time TempWeatherWind HumidityBarometerVisibility
6:00 PM
Thu, Jun 30
75 °FSunny.8 mph34%29.97 "Hg9 mi
5:00 PM77 °FSunny.10 mph34%29.97 "Hg9 mi
4:00 PM79 °FSunny.12 mph34%29.97 "Hg9 mi
3:00 PM79 °FSunny.7 mph28%29.98 "Hg9 mi
2:00 PM79 °FSunny.10 mph28%29.99 "Hg9 mi
1:00 PM77 °FSunny.3 mph32%30.01 "Hg9 mi
12:00 PM77 °FSunny.5 mph32%30.01 "Hg9 mi
11:00 AM73 °FSunny.9 mph33%30.04 "Hg9 mi
10:00 AM70 °FSunny.6 mph46%30.05 "Hg9 mi
9:00 AM68 °FSunny.8 mph46%30.03 "Hg9 mi
8:00 AM61 °FSunny.2 mph72%30.03 "Hg9 mi
7:00 AM52 °FSunny.No wind94%30.02 "Hg9 mi
6:00 AM45 °FPassing clouds.3 mph100%30.02 "Hg9 mi
5:00 AM46 °FClear.No wind93%30.01 "Hg9 mi
4:00 AM46 °FClear.No wind93%30.01 "Hg9 mi
3:00 AM48 °FClear.3 mph94%30.01 "Hg9 mi
2:00 AM54 °FClear.2 mph77%30.01 "Hg9 mi
1:00 AM57 °FClear.3 mph67%30.00 "Hg9 mi
12:00 AM57 °FClear.2 mph72%30.00 "Hg9 mi
11:00 PM
Wed, Jun 29
57 °FClear.2 mph77%29.99 "Hg9 mi
10:00 PM63 °FSunny.3 mph64%29.98 "Hg9 mi
9:00 PM66 °FSunny.8 mph56%29.97 "Hg9 mi
8:00 PM72 °FSunny.14 mph47%29.96 "Hg9 mi
7:00 PM75 °FSunny.12 mph39%29.95 "Hg9 mi
Weather by CustomWeather, © 2016

See weather overviewHow to use our weather pages